Tracking 31027 objects as of 19-Jul-2025
HD Live streaming from Space Station
objects crossing your sky now

STARLINK-30828

Track STARLINK-30828 now!
10-day predictions
STARLINK-30828 is classified as:


NORAD ID: 58671
Int'l Code: 2023-211E
Perigee: 489.5 km
Apogee: 491.0 km
Inclination: 43.0 °
Period: 94.3 minutes
Semi major axis: 6861 km
RCS: Unknown
Launch date: December 29, 2023
Source: United States (US)
Launch site: AIR FORCE EASTERN TEST RANGE (AFETR)
Your satellite tracking list
PRISMA
Track 1 satellite(s)




NASA's NSSDC Master Catalog

Two Line Element Set (TLE):
1 58671U 23211E   25199.40781776 -.00000233  00000-0  10629-5 0  9994
2 58671  42.9999 328.4368 0001097 276.9318  83.1409 15.27566789 86632
Source of the keplerian elements: AFSPC